Tracking 23114 objects as of 16-May-2021
HD Live streaming from Space Station
objects crossing your sky now

DIAMANT B-P4 DEB

Track DIAMANT B-P4 DEB now!
10-day predictions


NORAD ID: 7654
Int'l Code: 1975-010C
Perigee: 792.5 km
Apogee: 1,048.7 km
Inclination: 49.8 °
Period: 103.3 minutes
Semi major axis: 7291 km
RCS: 0.0394 m2 (small)
Launch date: February 6, 1975
Source: France (FR)
Launch site: FRENCH GUIANA (FRGUI)

Note: This is SATELLITE DEBRIS
aabbcc
Your satellite tracking list
Your tracking list is empty




NASA's NSSDC Master Catalog

Two Line Element Set (TLE):
1 07654U 75010C   21135.95600760 -.00000060  00000-0  56826-4 0  9998
2 07654  49.8445 111.5364 0175673 317.8325  40.9171 13.94329583350565
Source of the keplerian elements: AFSPC